Regional Weather Roundup
Issued by NWS

Home | Current Version | Previous Version | Graphics & Text | Print | Product List | Glossary On
Versions: 1 2 3 4 5 6 7 8 9 10 11 12 13 14 15 16 17 18 19 20 21 22 23 24 25 26 27 28 29 30
000
ASUS43 KDMX 291207
RWRIA

WEATHER ROUNDUP FOR IOWA
NATIONAL WEATHER SERVICE DES MOINES IA
700 AM CDT WED OCT 29 2014

NOTE: "FAIR" INDICATES FEW OR NO CLOUDS BELOW 12,000 FEET WITH NO
SIGNIFICANT WEATHER AND/OR OBSTRUCTIONS TO VISIBILITY.

* - THESE STATIONS ARE NOT NWS STATIONS...THUS NOT UNDER NWS
QUALITY CONTROL.  THEY ALSO DO NOT REPORT WEATHER SUCH
AS PRECIPITATION OR FOG.

IAZ001>003-012>014-020>022-031>034-043>046-291300-
   NORTHWEST IOWA

CITY           SKY/WX    TMP DP  RH WIND       PRES   REMARKS
CARROLL *      CLOUDY    41  34  75 W8        30.17R
CHEROKEE *     MOCLDY    37  32  79 NW6       30.17R WCI  33
DENISON *      CLEAR     32  32 100 CALM      30.18R
LE MARS *      CLEAR     32  30  93 W5        30.19S WCI  27
ORANGE CITY *  CLOUDY    41  30  65 NW9       30.17R
SHELDON *      CLOUDY    39  30  70 NW9G15    30.15R WCI  33
SIOUX CITY     CLEAR     29  27  92 CALM      30.21R
6HR MIN TEMP:  29; 6HR MAX TEMP:  37;

SPENCER        CLOUDY    40  31  70 NW8       30.15S WCI  34
6HR MIN TEMP:  37; 6HR MAX TEMP:  42;

STORM LAKE *   CLOUDY    41  30  65 NW9G15    30.17R
$$

IAZ055>058-069>071-079>083-090>094-291300-
   SOUTHWEST IOWA

CITY           SKY/WX    TMP DP  RH WIND       PRES   REMARKS
ATLANTIC *     CLEAR     32  30  93 CALM      30.20R
AUDUBON *      CLEAR     34  27  75 W3        30.19R
CLARINDA *     CLEAR     34  32  93 CALM      30.23R
COUNCIL BLFS * CLEAR     32  32 100 W7        30.20R WCI  26
CRESTON *      CLEAR     32  30  93 NW5       30.19R WCI  27
HARLAN  *      CLEAR     32  32 100 W7        30.23R WCI  26
LAMONI         CLEAR     35  31  85 W8        30.18R WCI  29
6HR MIN TEMP:  35; 6HR MAX TEMP:  38;

RED OAK *      CLEAR     32  30  93 W5        30.21R WCI  27
SHENANDOAH *   CLEAR     34  30  86 W7        30.23R WCI  28
$$

IAZ047>049-059>061-072>074-084-291300-
   CENTRAL IOWA

CITY           SKY/WX    TMP DP  RH WIND       PRES   REMARKS
AMES           CLEAR     38  31  76 NW10      30.15R WCI  31
6HR MIN TEMP:  38; 6HR MAX TEMP:  46;

ANKENY *       MOCLDY    41  32  70 NW9G15    30.16R
CHARITON *     MOCLDY    36  32  87 W7        30.16S WCI  30
DES MOINES     MOCLDY    45  31  58 NW12      30.16R
6HR MIN TEMP:  41; 6HR MAX TEMP:  45;

GRINNELL*      PTCLDY    39  32  75 NW6       30.14R WCI  35
KNOXVILLE *    CLEAR     37  32  81 W9        30.14R WCI  31
MARSHALLTOWN   CLEAR     36  31  82 W8        30.12R WCI  30
6HR MIN TEMP:  36; 6HR MAX TEMP:  45;

PELLA *        CLEAR     40  33  76 W7        30.15R
PERRY *        CLOUDY    41  34  75 NW3       30.17R
$$

IAZ004>006-015-016-023>025-035-036-291300-
   NORTH CENTRAL IOWA

CITY           SKY/WX    TMP DP  RH WIND       PRES   REMARKS
ALGONA *       CLOUDY    39  32  75 NW12      30.14R WCI  32
CLARION *      CLOUDY    37  34  87 W10       30.13R WCI  30
ESTHERVILLE    CLOUDY    38  30  73 NW13      30.14R WCI  30
6HR MIN TEMP:  34; 6HR MAX TEMP:  41;

FORT DODGE *   CLEAR     36  28  75 NW3       30.16R
MASON CITY     CLEAR     37  29  72 NW13      30.12R WCI  29
6HR MIN TEMP:  37; 6HR MAX TEMP:  41;

FOREST CITY *  CLEAR     37  32  81 NW14G23   30.11R WCI  29
IOWA FALLS *   CLOUDY    37  32  81 W12       30.12S WCI  30
$$

IAZ007>011-017>019-026>030-037>042-050>054-066-291300-
   NORTHEAST IOWA

CITY           SKY/WX    TMP DP  RH WIND       PRES   REMARKS
CEDAR RAPIDS   PTCLDY    37  32  82 W12       30.09R WCI  29
6HR MIN TEMP:  37; 6HR MAX TEMP:  46;

CHARLES CITY * CLOUDY    37  30  75 NW13G18   30.10R WCI  29
CLINTON *      CLOUDY    41  28  60 NW9       30.09S
DECORAH *      CLOUDY    39  30  70 VRB6G17   30.05R WCI  35
DUBUQUE        CLOUDY    40  30  67 NW18G24   30.05R WCI  31
6HR MIN TEMP:  39; 6HR MAX TEMP:  44;

MONTICELLO *   CLOUDY    43  30  61 NW16G24   30.07R
OELWEIN *      CLEAR     37  30  75 NW14      30.09R WCI  29
WATERLOO       CLEAR     38  29  70 NW14      30.10R WCI  30
6HR MIN TEMP:  38; 6HR MAX TEMP:  44;

$$

IAZ064-065-067-068-078-291300-
   EAST CENTRAL IOWA

CITY           SKY/WX    TMP DP  RH WIND       PRES   REMARKS
DAVENPORT      MOCLDY    41  29  62 NW12      30.08R
6HR MIN TEMP:  39; 6HR MAX TEMP:  47;

IOWA CITY      CLEAR     41  32  70 NW12G21   30.12R
6HR MIN TEMP:  41; 6HR MAX TEMP:  48;

MT. PLEASANT * CLOUDY    40  34  77 W7        30.13R
MUSCATINE *    CLEAR     43  32  65 NW12G18   30.12R
QUAD CITIES    PTCLDY    43  30  60 NW12      30.09R
6HR MIN TEMP:  42; 6HR MAX TEMP:  49;

$$

IAZ062-063-075>077-085>089-095>099-291300-
   SOUTHEAST IOWA

CITY           SKY/WX    TMP DP  RH WIND       PRES   REMARKS
BURLINGTON     PTCLDY    38  34  85 SW6       30.12R WCI  33
6HR MIN TEMP:  38; 6HR MAX TEMP:  43;

FAIRFIELD *    CLOUDY    41  34  75 W9        30.13R
FORT MADISON * CLOUDY    43  36  75 W6        30.13S
KEOKUK *       CLOUDY    39  36  87 W8        30.13S WCI  34
OSKALOOSA *      N/A     36  32  86 W9        30.14R WCI  29
CENTERVILLE *  CLEAR     36  32  87 W7        30.17S WCI  30
OTTUMWA        CLEAR     36  31  82 W7        30.14R WCI  30
6HR MIN TEMP:  36; 6HR MAX TEMP:  41;

WASHINGTON *   CLOUDY    43  37  81 W7        30.12R
$$

ABBREVIATIONS USED IN REMARKS
   TC - TEMPERATURES IN CELSIUS
  WCI - WIND CHILL INDEX
   HX - HEAT INDEX
  VSB - VISIBILITY
$$




USA.gov is the U.S. government's official web portal to all federal, state and local government web resources and services.